| time (UTC) | temp F | wind direction | speed MPH | gust MPH | rain 1hr in | rain 24hr in | rain mn in | humidity % | barometer mb |
| 20260509161517 | 58 | 0.0 | 2.0 | 0.00 | 0.06 | 0.06 | 83 | 1008.4 | |
| 20260509160516 | 58 | 0.0 | 0.0 | 0.00 | 0.06 | 0.06 | 82 | 1008.3 | |
| 20260509155516 | 58 | 0.0 | 2.0 | 0.00 | 0.06 | 0.06 | 82 | 1008.4 | |
| 20260509154536 | 58 | 0.0 | 3.0 | 0.00 | 0.06 | 0.06 | 86 | 1008.4 | |
| 20260509153516 | 58 | 0.0 | 1.0 | 0.00 | 0.06 | 0.06 | 86 | 1008.2 | |
| 20260509152516 | 57 | 0.0 | 1.0 | 0.00 | 0.06 | 0.06 | 88 | 1008.3 | |
| 20260509151517 | 56 | 0.0 | 3.0 | 0.01 | 0.06 | 0.06 | 89 | 1008.3 | |
| 20260509150536 | 55 | 0.0 | 0.0 | 0.01 | 0.06 | 0.06 | 94 | 1008.4 | |
| 20260509145536 | 55 | 0.0 | 3.0 | 0.02 | 0.06 | 0.06 | 98 | 1008.4 | |
| 20260509144516 | 54 | 0.0 | 0.0 | 0.03 | 0.06 | 0.06 | 98 | 1008.3 | |
| 20260509143536 | 54 | 0.0 | 4.0 | 0.04 | 0.06 | 0.06 | 100 | 1008.4 | |
| 20260509142536 | 54 | 0.0 | 0.0 | 0.04 | 0.06 | 0.06 | 100 | 1008.4 | |
| 20260509141536 | 53 | 0.0 | 1.0 | 0.04 | 0.05 | 0.05 | 100 | 1008.4 | |
| 20260509140536 | 53 | 0.0 | 2.0 | 0.04 | 0.05 | 0.05 | 100 | 1008.4 | |
| 20260509135516 | 54 | 0.0 | 0.0 | 0.04 | 0.04 | 0.04 | 100 | 1008.4 | |
| 20260509134536 | 54 | 0.0 | 0.0 | 0.03 | 0.03 | 0.03 | 100 | 1008.4 | |
| 20260509133516 | 54 | 0.0 | 0.0 | 0.02 | 0.02 | 0.02 | 100 | 1008.4 | |
| 20260509132516 | 53 | 0.0 | 0.0 | 0.02 | 0.02 | 0.02 | 97 | 1008.3 | |
| 20260509131536 | 54 | 0.0 | 1.0 | 0.01 | 0.01 | 0.01 | 94 | 1008.4 | |
| 20260509130516 | 54 | 0.0 | 0.0 | 0.01 | 0.01 | 0.01 | 92 | 1008.4 | |
| 20260509125516 | 54 | 0.0 | 0.0 | 0.00 | 0.00 | 0.00 | 90 | 1008.4 | |
| 20260509124516 | 54 | 0.0 | 0.0 | 0.00 | 0.00 | 0.00 | 88 | 1008.4 | |
| 20260509123516 | 54 | 0.0 | 0.0 | 0.00 | 0.00 | 0.00 | 86 | 1008.4 | |
| 20260509122516 | 54 | 0.0 | 0.0 | 0.00 | 0.00 | 0.00 | 86 | 1008.7 | |
| 20260509121516 | 54 | 0.0 | 0.0 | 0.00 | 0.00 | 0.00 | 85 | 1008.7 | |
| 20260509120516 | 54 | 0.0 | 0.0 | 0.00 | 0.00 | 0.00 | 82 | 1008.8 | |
| 20260509115516 | 53 | 0.0 | 0.0 | 0.00 | 0.00 | 0.00 | 83 | 1008.9 | |
| 20260509114516 | 53 | 0.0 | 0.0 | 0.00 | 0.00 | 0.00 | 83 | 1008.9 | |
| 20260509113516 | 53 | 0.0 | 0.0 | 0.00 | 0.00 | 0.00 | 86 | 1009.0 | |
| 20260509112536 | 52 | 0.0 | 0.0 | 0.00 | 0.00 | 0.00 | 84 | 1008.7 | |
| 20260509111516 | 53 | 293 | 1.0 | 3.0 | 0.00 | 0.00 | 0.00 | 87 | 1008.7 |
| 20260509110516 | 53 | 0.0 | 1.0 | 0.00 | 0.00 | 0.00 | 84 | 1008.1 | |
| 20260509105516 | 53 | 0.0 | 0.0 | 0.00 | 0.00 | 0.00 | 81 | 1008.2 | |
| 20260509104516 | 53 | 0.0 | 0.0 | 0.00 | 0.00 | 0.00 | 78 | 1008.2 | |
| 20260509103516 | 52 | 0.0 | 0.0 | 0.00 | 0.00 | 0.00 | 80 | 1007.8 | |
| 20260509102515 | 52 | 0.0 | 0.0 | 0.00 | 0.00 | 0.00 | 77 | 1008.0 | |
| 20260509101515 | 52 | 0.0 | 0.0 | 0.00 | 0.00 | 0.00 | 78 | 1008.0 | |
| 20260509100516 | 52 | 0.0 | 0.0 | 0.00 | 0.00 | 0.00 | 82 | 1007.6 | |
| 20260509095516 | 52 | 0.0 | 1.0 | 0.00 | 0.00 | 0.00 | 82 | 1007.4 | |
| 20260509094515 | 52 | 0.0 | 0.0 | 0.00 | 0.00 | 0.00 | 82 | 1007.4 | |
| 20260509093515 | 52 | 0.0 | 0.0 | 0.00 | 0.00 | 0.00 | 81 | 1007.3 | |
| 20260509093017 | 52 | 0.0 | 0.0 | 0.00 | 0.00 | 0.00 | 80 | 1007.3 | |
| 20260509092017 | 52 | 0.0 | 0.0 | 0.00 | 0.00 | 0.00 | 79 | 1007.4 | |
| 20260509091037 | 52 | 0.0 | 0.0 | 0.00 | 0.00 | 0.00 | 80 | 1007.5 | |
| 20260509090017 | 52 | 0.0 | 0.0 | 0.00 | 0.00 | 0.00 | 79 | 1007.4 | |
| 20260509085017 | 52 | 0.0 | 0.0 | 0.00 | 0.00 | 0.00 | 79 | 1007.4 | |
| 20260509084017 | 53 | 0.0 | 0.0 | 0.00 | 0.00 | 0.00 | 79 | 1007.5 | |
| 20260509083017 | 53 | 0.0 | 0.0 | 0.00 | 0.00 | 0.00 | 77 | 1007.6 | |
| 20260509082017 | 53 | 0.0 | 0.0 | 0.00 | 0.00 | 0.00 | 76 | 1007.8 | |
| 20260509081017 | 53 | 0.0 | 1.0 | 0.00 | 0.00 | 0.00 | 76 | 1007.7 | |
| 20260509080540 | 53 | 0.0 | 2.0 | 0.00 | 0.00 | 0.00 | 76 | 1007.8 | |
| 20260509080016 | 53 | 0.0 | 0.0 | 0.00 | 0.00 | 0.00 | 76 | 1007.8 | |
| 20260509075016 | 53 | 0.0 | 1.0 | 0.00 | 0.00 | 0.00 | 78 | 1007.7 | |
| 20260509074016 | 53 | 0.0 | 0.0 | 0.00 | 0.00 | 0.00 | 79 | 1007.6 | |
| 20260509073016 | 53 | 0.0 | 0.0 | 0.00 | 0.00 | 0.00 | 78 | 1007.6 | |
| 20260509072036 | 53 | 0.0 | 0.0 | 0.00 | 0.00 | 0.00 | 76 | 1007.7 | |
| 20260509071016 | 53 | 0.0 | 0.0 | 0.00 | 0.00 | 0.00 | 76 | 1007.8 | |
| 20260509070016 | 53 | 0.0 | 0.0 | 0.00 | 0.00 | 0.00 | 74 | 1007.9 | |
| 20260509065036 | 53 | 0.0 | 0.0 | 0.00 | 0.00 | 0.00 | 73 | 1008.0 | |
| 20260509064016 | 53 | 0.0 | 2.0 | 0.00 | 0.00 | 0.00 | 73 | 1008.0 | |
| 20260509063016 | 53 | 0.0 | 3.0 | 0.00 | 0.00 | 0.00 | 75 | 1008.0 | |
| 20260509062016 | 53 | 0.0 | 0.0 | 0.00 | 0.00 | 0.00 | 75 | 1007.9 | |
| 20260509061016 | 53 | 0.0 | 0.0 | 0.00 | 0.00 | 0.00 | 75 | 1008.0 | |
| 20260509060016 | 53 | 0.0 | 0.0 | 0.00 | 0.00 | 0.00 | 74 | 1008.0 | |
| 20260509055016 | 54 | 0.0 | 0.0 | 0.00 | 0.00 | 0.00 | 72 | 1008.3 | |
| 20260509054015 | 54 | 0.0 | 0.0 | 0.00 | 0.00 | 0.00 | 72 | 1008.3 | |
| 20260509053016 | 54 | 0.0 | 0.0 | 0.00 | 0.00 | 0.00 | 70 | 1008.3 | |
| 20260509052016 | 55 | 0.0 | 1.0 | 0.00 | 0.00 | 0.00 | 70 | 1008.3 | |
| 20260509051015 | 55 | 0.0 | 0.0 | 0.00 | 0.00 | 0.00 | 68 | 1008.3 | |
| 20260509050016 | 55 | 0.0 | 0.0 | 0.00 | 0.00 | 0.00 | 68 | 1008.3 | |
| 20260509045015 | 55 | 0.0 | 0.0 | 0.00 | 0.00 | 0.00 | 67 | 1008.1 | |
| 20260509044035 | 55 | 0.0 | 0.0 | 0.00 | 0.00 | 0.00 | 67 | 1008.3 | |
| 20260509043035 | 55 | 0.0 | 0.0 | 0.00 | 0.00 | 0.00 | 67 | 1008.2 | |
| 20260509042015 | 55 | 0.0 | 0.0 | 0.00 | 0.00 | 0.00 | 68 | 1008.4 | |
| 20260509041015 | 55 | 0.0 | 0.0 | 0.00 | 0.00 | 0.00 | 67 | 1008.7 | |
| 20260509040035 | 55 | 0.0 | 0.0 | 0.00 | 0.00 | 0.00 | 65 | 1008.8 | |
| 20260509035036 | 55 | 0.0 | 2.0 | 0.00 | 0.00 | 0.00 | 63 | 1008.8 | |
| 20260509034016 | 56 | 0.0 | 0.0 | 0.00 | 0.00 | 0.00 | 63 | 1008.8 | |
| 20260509033016 | 56 | 0.0 | 0.0 | 0.00 | 0.00 | 0.00 | 61 | 1008.8 | |
| 20260509032016 | 57 | 0.0 | 0.0 | 0.00 | 0.00 | 0.00 | 57 | 1008.8 | |
| 20260509031016 | 57 | 0.0 | 1.0 | 0.00 | 0.00 | 0.00 | 55 | 1008.9 | |
| 20260509030016 | 58 | 270 | 2.0 | 7.0 | 0.00 | 0.00 | 0.00 | 54 | 1008.9 |
| 20260509025016 | 58 | 0.0 | 2.0 | 0.00 | 0.00 | 0.00 | 53 | 1008.8 | |
| 20260509024016 | 57 | 270 | 2.0 | 6.0 | 0.00 | 0.00 | 0.00 | 54 | 1008.9 |
| 20260509023016 | 57 | 0.0 | 0.0 | 0.00 | 0.00 | 0.00 | 62 | 1008.8 | |
| 20260509022016 | 57 | 0.0 | 0.0 | 0.00 | 0.00 | 0.00 | 59 | 1009.0 | |
| 20260509021036 | 57 | 0.0 | 0.0 | 0.00 | 0.00 | 0.00 | 62 | 1009.0 | |
| 20260509020016 | 57 | 0.0 | 0.0 | 0.00 | 0.00 | 0.00 | 59 | 1008.9 | |
| 20260509015016 | 57 | 0.0 | 0.0 | 0.00 | 0.00 | 0.00 | 61 | 1009.0 | |
| 20260509014016 | 57 | 0.0 | 0.0 | 0.00 | 0.00 | 0.00 | 58 | 1008.9 | |
| 20260509013016 | 57 | 0.0 | 0.0 | 0.00 | 0.00 | 0.00 | 59 | 1008.9 | |
| 20260509012036 | 57 | 0.0 | 0.0 | 0.00 | 0.00 | 0.00 | 62 | 1008.8 | |
| 20260509011015 | 57 | 0.0 | 0.0 | 0.00 | 0.00 | 0.00 | 64 | 1008.8 | |
| 20260509010015 | 56 | 0.0 | 0.0 | 0.00 | 0.00 | 0.00 | 62 | 1008.7 | |
| 20260509005016 | 56 | 0.0 | 0.0 | 0.00 | 0.00 | 0.00 | 61 | 1008.6 | |
| 20260509004015 | 56 | 0.0 | 0.0 | 0.00 | 0.00 | 0.00 | 57 | 1008.7 | |
| 20260509003015 | 57 | 0.0 | 0.0 | 0.00 | 0.00 | 0.00 | 58 | 1008.6 | |
| 20260509002035 | 58 | 0.0 | 0.0 | 0.00 | 0.00 | 0.00 | 55 | 1008.4 | |
| 20260509001035 | 59 | 0.0 | 0.0 | 0.00 | 0.00 | 0.00 | 52 | 1008.6 | |
| 20260509000517 | 60 | 0.0 | 1.0 | 0.00 | 0.00 | 0.00 | 52 | 1008.6 | |
| 20260508235517 | 62 | 0.0 | 0.0 | 0.00 | 0.00 | 0.00 | 47 | 1008.4 | |
| 20260508234517 | 63 | 0.0 | 0.0 | 0.00 | 0.00 | 0.00 | 43 | 1008.5 | |
| 20260508233517 | 64 | 0.0 | 1.0 | 0.00 | 0.00 | 0.00 | 37 | 1008.1 | |
| 20260508232517 | 65 | 0.0 | 0.0 | 0.00 | 0.00 | 0.00 | 36 | 1008.2 | |
| 20260508231517 | 65 | 0.0 | 1.0 | 0.00 | 0.00 | 0.00 | 37 | 1008.2 | |
| 20260508230517 | 65 | 0.0 | 2.0 | 0.00 | 0.00 | 0.00 | 35 | 1008.3 | |
| 20260508225517 | 65 | 270 | 1.0 | 4.0 | 0.00 | 0.00 | 0.00 | 34 | 1008.3 |
| 20260508224517 | 65 | 0.0 | 3.0 | 0.00 | 0.00 | 0.00 | 34 | 1008.3 | |
| 20260508223517 | 65 | 270 | 1.0 | 3.0 | 0.00 | 0.00 | 0.00 | 34 | 1008.3 |
| 20260508222537 | 65 | 270 | 2.0 | 6.0 | 0.00 | 0.00 | 0.00 | 33 | 1008.4 |
| 20260508221517 | 65 | 270 | 3.0 | 10.0 | 0.00 | 0.00 | 0.00 | 33 | 1008.4 |
| 20260508220517 | 66 | 270 | 2.0 | 6.0 | 0.00 | 0.00 | 0.00 | 34 | 1008.5 |
| 20260508215520 | 66 | 270 | 1.0 | 6.0 | 0.00 | 0.00 | 0.00 | 32 | 1008.4 |
| 20260508214517 | 66 | 270 | 2.0 | 5.0 | 0.00 | 0.00 | 0.00 | 34 | 1008.4 |
| 20260508213517 | 66 | 225 | 3.0 | 13.0 | 0.00 | 0.00 | 0.00 | 32 | 1008.5 |
| 20260508212517 | 66 | 248 | 3.0 | 10.0 | 0.00 | 0.00 | 0.00 | 32 | 1008.4 |
| 20260508211517 | 66 | 270 | 2.0 | 8.0 | 0.00 | 0.00 | 0.00 | 33 | 1008.4 |
| 20260508210517 | 66 | 270 | 3.0 | 6.0 | 0.00 | 0.00 | 0.00 | 31 | 1008.4 |
| 20260508205537 | 66 | 270 | 2.0 | 10.0 | 0.00 | 0.00 | 0.00 | 32 | 1008.4 |
| 20260508204517 | 66 | 270 | 2.0 | 7.0 | 0.00 | 0.00 | 0.00 | 32 | 1008.4 |
| 20260508203537 | 65 | 270 | 3.0 | 7.0 | 0.00 | 0.00 | 0.00 | 31 | 1008.7 |
| 20260508202516 | 66 | 270 | 2.0 | 7.0 | 0.00 | 0.00 | 0.00 | 29 | 1008.7 |
| 20260508201516 | 66 | 270 | 2.0 | 7.0 | 0.00 | 0.00 | 0.00 | 30 | 1008.8 |
| 20260508200537 | 66 | 270 | 4.0 | 14.0 | 0.00 | 0.00 | 0.00 | 30 | 1008.7 |
| 20260508195516 | 67 | 270 | 3.0 | 11.0 | 0.00 | 0.00 | 0.00 | 28 | 1008.8 |
| 20260508194516 | 68 | 270 | 2.0 | 7.0 | 0.00 | 0.00 | 0.00 | 29 | 1008.8 |
| 20260508193516 | 68 | 293 | 3.0 | 12.0 | 0.00 | 0.00 | 0.00 | 27 | 1009.0 |
| 20260508192517 | 67 | 225 | 2.0 | 7.0 | 0.00 | 0.00 | 0.00 | 29 | 1009.1 |
| 20260508191516 | 66 | 248 | 2.0 | 6.0 | 0.00 | 0.00 | 0.00 | 30 | 1009.1 |
| 20260508190516 | 66 | 270 | 2.0 | 9.0 | 0.00 | 0.00 | 0.00 | 28 | 1009.2 |
| 20260508185516 | 67 | 270 | 3.0 | 13.0 | 0.00 | 0.00 | 0.00 | 29 | 1009.3 |
| 20260508184516 | 67 | 270 | 2.0 | 7.0 | 0.00 | 0.00 | 0.00 | 29 | 1009.3 |
| 20260508183536 | 68 | 248 | 4.0 | 12.0 | 0.00 | 0.00 | 0.00 | 28 | 1009.4 |
| 20260508182536 | 70 | 248 | 2.0 | 5.0 | 0.00 | 0.00 | 0.00 | 28 | 1009.5 |
| 20260508181516 | 69 | 270 | 4.0 | 13.0 | 0.00 | 0.00 | 0.00 | 27 | 1009.4 |
| 20260508180516 | 68 | 270 | 4.0 | 14.0 | 0.00 | 0.00 | 0.00 | 29 | 1009.5 |
| 20260508175516 | 69 | 248 | 5.0 | 13.0 | 0.00 | 0.00 | 0.00 | 27 | 1009.7 |
| 20260508174516 | 69 | 158 | 2.0 | 13.0 | 0.00 | 0.00 | 0.00 | 29 | 1009.7 |
| 20260508173516 | 68 | 270 | 4.0 | 15.0 | 0.00 | 0.00 | 0.00 | 30 | 1010.0 |
| 20260508172517 | 67 | 293 | 3.0 | 10.0 | 0.00 | 0.00 | 0.00 | 31 | 1010.1 |
| 20260508171517 | 67 | 270 | 5.0 | 20.0 | 0.00 | 0.00 | 0.00 | 31 | 1010.1 |
| 20260508170516 | 68 | 315 | 2.0 | 12.0 | 0.00 | 0.00 | 0.00 | 29 | 1010.5 |
| 20260508165516 | 66 | 270 | 3.0 | 13.0 | 0.00 | 0.00 | 0.00 | 31 | 1010.5 |
| 20260508164516 | 65 | 270 | 4.0 | 14.0 | 0.00 | 0.00 | 0.00 | 32 | 1010.5 |
| 20260508163516 | 64 | 293 | 3.0 | 10.0 | 0.00 | 0.00 | 0.00 | 32 | 1010.8 |
| 20260508162516 | 64 | 293 | 3.0 | 10.0 | 0.00 | 0.00 | 0.00 | 33 | 1010.9 |